TimeCDT,TemperatureF,Dew PointF,Humidity,Sea Level PressureIn,VisibilityMPH,Wind Direction,Wind SpeedMPH,Gust SpeedMPH,PrecipitationIn,Events,Conditions,WindDirDegrees,DateUTC
1:00 AM,0,-4,74,29.97,15,Calm,Calm,,,,Scattered Clouds,,2012-10-05 06:00:00
1:00 AM,1.4,-4.0,78,29.97,15.0,Calm,Calm,-,N/A,,Partly Cloudy,0,2012-10-05 06:00:00
2:00 AM,1.4,-2.2,85,29.97,2.5,SSE,2.3,-,N/A,,Scattered Clouds,160,2012-10-05 07:00:00
3:00 AM,-0.4,-5.8,78,29.97,2.0,Calm,Calm,-,N/A,,Mostly Cloudy,0,2012-10-05 08:00:00
3:44 AM,-9999,-9999,N/A,-9999,10.0,East,2.3,-,N/A,,Partly Cloudy,80,2012-10-05 08:44:00
4:00 AM,-2.2,-7.6,78,29.97,10.0,Calm,Calm,-,N/A,,Partly Cloudy,0,2012-10-05 09:00:00
5:00 AM,-0.4,-5.8,78,29.96,40.0,SSE,2.3,-,N/A,,Partly Cloudy,150,2012-10-05 10:00:00
6:00 AM,-0.4,-5.8,78,29.96,40.0,SE,2.3,-,N/A,Fog,Partly Cloudy,130,2012-10-05 11:00:00
7:00 AM,-2.2,-7.6,78,29.95,40.0,Calm,Calm,-,N/A,,Partly Cloudy,0,2012-10-05 12:00:00
8:00 AM,-2.2,-7.6,78,29.95,40.0,Calm,Calm,-,N/A,,Partly Cloudy,0,2012-10-05 13:00:00
9:00 AM,-0.4,-5.8,78,29.94,40.0,East,2.3,-,N/A,,Partly Cloudy,100,2012-10-05 14:00:00
10:00 AM,-0.4,-5.8,78,29.94,40.0,East,2.3,-,N/A,,Partly Cloudy,90,2012-10-05 15:00:00
11:00 AM,-0.4,-5.8,78,29.94,40.0,East,2.3,-,N/A,,Partly Cloudy,90,2012-10-05 16:00:00
12:00 PM,-0.4,-5.8,78,29.94,40.0,ESE,2.3,-,N/A,,Partly Cloudy,110,2012-10-05 17:00:00
1:00 PM,0,-6,66,29.93,37,SE,2.3,,,,Scattered Clouds,130,2012-10-05 18:00:00
1:00 PM,1.4,-5.8,72,29.93,40.0,SE,2.3,-,N/A,,Partly Cloudy,140,2012-10-05 18:00:00
3:00 PM,1.4,-4.0,78,29.93,15.0,East,2.3,-,N/A,,Scattered Clouds,90,2012-10-05 20:00:00
4:00 PM,-0.4,-4.0,85,29.93,15.0,ENE,2.3,-,N/A,,Partly Cloudy,70,2012-10-05 21:00:00
5:00 PM,-0.4,-4.0,85,29.93,15.0,East,2.3,-,N/A,Fog,Partly Cloudy,90,2012-10-05 22:00:00
6:00 PM,-0.4,-5.8,78,29.92,15.0,ESE,3.5,-,N/A,Fog,Partly Cloudy,120,2012-10-05 23:00:00
7:00 PM,-1,-6,69,29.92,15,East,2.3,,,,Scattered Clouds,90,2012-10-06 00:00:00
7:00 PM,-0.4,-5.8,78,29.92,15.0,East,2.3,-,N/A,,Partly Cloudy,80,2012-10-06 00:00:00
8:00 PM,-2.2,-7.6,78,29.91,15.0,ESE,3.5,-,N/A,,Partly Cloudy,110,2012-10-06 01:00:00
9:00 PM,-2.2,-7.6,78,29.89,15.0,East,3.5,-,N/A,,Mostly Cloudy,100,2012-10-06 02:00:00
9:36 PM,-9999,-9999,N/A,-9999,10.0,Calm,Calm,-,N/A,,Mostly Cloudy,0,2012-10-06 02:36:00
10:00 PM,1.4,-4.0,78,29.87,10.0,Calm,Calm,-,N/A,,Mostly Cloudy,0,2012-10-06 03:00:00